Location: Harbor Side
(32.6101°N, 117.0814°W)
Time: 07:21:45
(UTC+00:00)

Cosmos 2369 Rocket - Pass Details

Date: 21 April 2021
Orbit: 828 x 853 km, 71.0° (Epoch: 13 May)

Event Time Altitude Azimuth Distance (km) Brightness Sun altitude
Exits shadow 12:03:30 19° 264° (W) 1,864 3.4 -14.3°
Maximum altitude 12:05:49 25° 299° (WNW) 1,616 3.4 -13.9°
Drops below altitude 10° 12:10:22 10° 354° (N) 2,443 4.8 -13.0°
Sets 12:13:16 0° 7° (N) 3,384 5.8 -12.4°
